Location: Newark
(40.9833°N, 0.0333°W)
Time: 00:26:44
(UTC+00:00)

deb Explorer IX - Pass Details

Date: 03 November 2020
Orbit: 537 x 1105 km, 38.8° (Epoch: 03 December)

Event Time Altitude Azimuth Distance (km) Brightness Sun altitude
Rises 06:24:18 0° 274° (W) 3,313 - -2.5°
Exits shadow 06:24:45 - 274° (W) 3,146 ? -2.4°
Reaches altitude 10° 06:26:39 10° 271° (W) 2,466 ? -2.1°
Maximum altitude 06:32:32 65° 192° (SSW) 1,034 ? -1.0°
Drops below altitude 10° 06:39:20 10° 112° (ESE) 2,832 ? 0.2°
Sets 06:42:12 0° 109° (ESE) 3,839 ? 0.7°
